Regional Weather Roundup
Issued by NWS Glasgow, MT

Home | Current Version | Previous Version | Text Only | Print | Product List | Glossary On
Versions: 1 2 3 4 5 6 7 8 9 10 11 12 13 14 15 16 17 18 19 20 21 22 23 24 25 26 27 28 29 30 31 32 33 34 35 36 37 38 39 40 41 42 43 44 45 46 47 48 49 50
000
ASUS45 KGGW 240015
RWRGGW
HOURLY REGIONAL WEATHER ROUNDUP FOR NORTHEAST MONTANA
NATIONAL WEATHER SERVICE GLASGOW MONTANA
600 PM MDT SAT JUL 23 2016

NOTE: "FAIR" INDICATES FEW OR NO CLOUDS BELOW 12,000 FEET WITH NO
SIGNIFICANT WEATHER AND/OR OBSTRUCTIONS TO VISISBILITY.

NORTHEAST MONTANA


CITY           SKY/WX    TMP DP  RH WIND       PRES   REMARKS
GLASGOW        SUNNY     78  49  35 NW21G31   29.94R
6HR MIN TEMP:  75; 6HR MAX TEMP:  81;

PLENTYWOOD       N/A     72  52  49 NW21G33     N/A
WOLF POINT     CLOUDY    80  50  34 NW24G32   29.92R
JORDAN           N/A     82  45  27 NW23G29   29.96S
WINNETT          N/A     81  43  26 W16G26      N/A
SIDNEY         SUNNY     81  51  35 NW23G31   29.89R
GLENDIVE       SUNNY     80  48  32 NW17G29   29.93R
SCOBEY           N/A     75  52  44 NW16G23   29.93
OPHEIM           N/A     68  45  42 N12       29.76R

FORT PECK REPORTS


CITY           SKY/WX    TMP DP  RH WIND       PRES   REMARKS
FORT PECK        N/A     80  51  36 NW22        N/A
THE PINES        N/A     80  46  30 NW9G17      N/A

SOUTHEAST MONTANA


CITY           SKY/WX    TMP DP  RH WIND       PRES   REMARKS
BILLINGS       MOSUNNY   83  36  18 NE12      30.01S
MILES CITY     SUNNY     85  40  20 NW16G26   29.95S
BAKER          SUNNY     83  42  23 NW17G29   29.95S
LIVINGSTON     MOSUNNY   78  30  17 N13       30.06S

CENTRAL MONTANA


CITY           SKY/WX    TMP DP  RH WIND       PRES   REMARKS
HAVRE          SUNNY     81  46  29 NW10      29.97F
LEWISTOWN      MOSUNNY   77  45  32 N6        30.08F
GREAT FALLS    PTSUNNY   77  39  25 SW13      30.03F
CUT BANK       SUNNY     77  37  23 W17       30.04F
HELENA         SUNNY     79  38  22 W15       30.08S
BUTTE          SUNNY     74  36  25 N13       30.16S
BOZEMAN        MOSUNNY   80  39  23 VRB6      30.07F

WESTERN MONTANA


CITY           SKY/WX    TMP DP  RH WIND       PRES   REMARKS
MISSOULA       SUNNY     78  38  23 NW9G21    30.09F
KALISPELL      NOT AVBL

NORTH DAKOTA


CITY           SKY/WX    TMP DP  RH WIND       PRES   REMARKS
WILLISTON      SUNNY     78  53  41 NW22G30   29.87R
DICKINSON      SUNNY     79  44  28 W17       29.87S
MINOT          SUNNY     83  54  36 W16G29    29.77R
BISMARCK       SUNNY     84  51  31 W14G22    29.81S

SOUTHERN SASKATCHEWAN


CITY           SKY/WX    TMP DP  RH WIND       PRES   REMARKS
REGINA         MOSUNNY   72  61  68 NW18G30   29.81
ESTEVAN        MOSUNNY   72  59  64 NW18G30   29.81R
SWIFT CURRENT  MOSUNNY   70  57  64 W13G22    29.94R




USA.gov is the U.S. government's official web portal to all federal, state and local government web resources and services.